Theta_e
325 324 324 324 322 322 321 321 322 321 322 321 322 323 323 323 321 320 319 314 309 305
319 323 322 322 322 322 322 321 322 322 322 321 321 321 316 311 308 307 306 304 302 300
311 317 322 321 319 321 322 320 319 319 317 314 311 309 307 304 303 301 300 298 296 295
306 310 320 320 320 320 318 316 315 313 310 308 306 305 304 301 300 298 296 295 293 292
303 308 313 319 319 315 311 309 308 307 306 306 303 301 299 297 295 294 292 291 291 290
301 306 307 311 315 309 306 306 306 303 301 300 299 298 296 294 293 291 290 289 288 287
295 298 305 305 305 305 307 305 303 303 301 299 297 295 293 291 289 288 287 287 286 286
291 293 296 298 298 295 295 297 300 294 293 293 292 291 288 287 286 285 284 284 285 285
288 288 289 289 290 291 288 287 288 288 288 287 288 289 288 286 284 284 283 282 283 284
286 285 285 286 287 286 286 286 286 286 286 285 286 288 287 285 283 282 282 282 281 282
284 284 285 285 285 285 286 286 286 285 285 284 285 287 286 285 283 282 282 282 281 280
284 284 284 284 284 285 285 285 284 284 284 284 284 286 286 283 282 281 281 281 281 280
284 283 283 283 283 284 284 283 284 283 284 284 283 286 285 283 282 280 279 279 280 281
282 282 283 283 283 283 283 282 282 282 282 282 283 284 285 284 281 280 279 279 279 280
Wind_Speed
16 10 10 10 9 8 8 9 9 11 11 13 12 11 10 8 6 6 5 6 5 5
8 12 10 10 9 8 9 7 10 12 13 13 12 11 8 6 6 6 5 8 8 7
8 8 11 8 8 10 10 9 10 10 9 9 9 10 10 8 8 10 7 7 11 7
7 5 14 10 10 10 6 8 9 10 10 11 11 11 11 10 10 12 13 8 11 10
11 9 11 14 11 9 8 6 6 6 5 5 12 12 14 13 10 10 9 12 11 11
8 8 5 7 10 12 11 10 11 11 11 12 10 9 10 13 12 10 10 12 10 9
8 9 4 2 3 1 9 14 12 13 13 11 11 14 14 13 14 12 12 10 8 8
6 6 6 4 7 9 10 6 5 13 9 9 12 7 13 16 15 14 13 12 10 10
5 5 5 7 8 11 13 12 13 11 12 13 10 22 23 18 17 13 14 13 11 11
2 4 5 7 9 10 13 16 13 14 14 13 15 24 26 25 13 13 12 11 10 9
4 5 5 9 10 12 11 15 13 18 13 16 14 23 23 24 15 12 9 11 10 9
4 6 6 10 11 11 14 12 15 13 16 18 13 23 20 18 12 12 10 8 9 8
5 7 8 10 12 10 14 14 12 14 14 15 14 20 19 14 9 11 8 8 9 11
7 9 8 11 11 12 14 13 13 12 11 13 11 14 19 17 8 9 8 6 6 6
Wind_Direction
235 224 223 214 203 203 202 206 196 193 202 210 208 209 207 212 214 193 188 152 128 118
296 224 214 205 203 201 203 192 198 198 201 206 203 196 154 139 129 114 109 112 110 109
311 276 254 197 193 205 214 195 191 193 185 168 155 142 132 125 124 119 111 112 98 80
274 254 235 231 200 205 194 190 181 179 169 159 147 137 123 117 123 122 115 109 102 95
317 314 288 218 207 180 160 130 120 105 70 119 133 122 119 115 118 110 111 108 106 111
308 279 280 277 194 160 143 144 138 128 123 136 112 106 116 114 110 107 118 101 103 118
327 322 289 193 59 26 161 153 143 147 160 142 146 137 127 119 113 105 89 102 108 113
325 333 3 44 96 65 48 38 108 122 101 114 113 105 122 109 105 106 103 96 95 80
346 12 28 52 60 89 80 56 73 61 82 88 84 107 107 107 103 102 102 100 92 98
66 57 59 75 82 83 98 94 72 76 80 77 95 102 103 100 98 106 106 107 98 86
111 95 96 98 99 99 93 96 108 100 90 90 82 96 99 97 96 92 87 98 105 111
116 108 113 106 104 106 102 102 98 98 97 98 105 107 106 100 98 100 90 84 94 106
101 106 111 110 109 106 104 103 98 97 99 107 113 112 114 104 105 103 104 100 97 100
97 101 109 105 101 105 102 103 100 98 102 98 108 121 125 122 119 127 127 128 124 119